Flag for Germany Weather past 2 weeks in Eschweiler, North Rhine-Westphalia, Germany

Now
59 °F

Overcast.


Feels Like: 59 °F
Forecast: 50 / 66 °F
Wind: 1 mph from South

Location: Noervenich

Current Time: Aug 21, 2014 at 10:04:48 PM

Latest Report: Aug 21, 2014 at 9:00 PM


Visibility: 19 mi

Pressure: 29.98 "Hg

Humidity: 68%

Dew point: 48 °F

Location of EschweilerLocation

Historic Weather in Eschweiler — Graph

°F

Eschweiler temperature yesterday

Maximum temperature yesterday: 64 °F (at 3:00 PM)
Minimum temperature yesterday: 43 °F (at 7:00 AM)
Average temperature yesterday: 54 °F

Past Weeks' High & Low Weather Summary

 TemperatureHumidityPressure
High80 °F (Aug 8, 3:00 PM)96% (Aug 7, 1:00 AM)30.13 "Hg (Aug 7, 1:00 AM)
Low43 °F (Aug 20, 7:00 AM)44% (Aug 12, 2:00 PM)29.60 "Hg (Aug 10, 7:00 PM)
Average61 °F77%29.89 "Hg
* Reported Aug 6 7:00 PM — Aug 21 7:00 PM, Eschweiler, Weather by CustomWeather, © 2014

Note: Actual official high and low records may vary slightly from our data, if they occured in-between our weather recording intervals... More about our weather records

Advertising

Eschweiler weather history for previous 24 hours

 ConditionsComfort  
Time TempWeatherWind HumidityBarometerVisibility
7:00 PM
Aug 21
63 °FScattered clouds.2 mph53%29.99 "Hg25 mi
6:00 PM63 °FOvercast.2 mph50%30.00 "Hg25 mi
4:00 PM63 °FPartly sunny.7 mph48%30.01 "Hg25 mi
3:00 PM65 °FPartly sunny.3 mph44%30.02 "Hg25 mi
2:00 PM64 °FScattered clouds.5 mph46%30.03 "Hg25 mi
1:00 PM64 °FScattered clouds.3 mph49%30.04 "Hg19 mi
12:00 PM61 °FPartly sunny.2 mph52%30.04 "Hg19 mi
10:00 AM56 °FScattered clouds.1 mph75%30.05 "Hg16 mi
9:00 AM53 °FScattered clouds.1 mph82%30.05 "Hg12 mi
8:00 AM49 °FScattered clouds.1 mph88%30.06 "Hg11 mi
7:00 AM47 °FScattered clouds.1 mph92%30.05 "Hg11 mi
6:00 AM47 °FPassing clouds.No wind93%30.05 "Hg12 mi
4:00 AM48 °FClear.2 mph91%30.05 "Hg12 mi
3:00 AM51 °FClear.2 mph90%30.05 "Hg12 mi
2:00 AM51 °FPassing clouds.1 mph93%30.05 "Hg12 mi
1:00 AM52 °FPassing clouds.1 mph94%30.04 "Hg12 mi
12:00 AM52 °FOvercast.1 mph94%30.04 "Hg12 mi
10:00 PM
Aug 20
52 °FOvercast.1 mph95%30.04 "Hg12 mi
Weather by CustomWeather, © 2014

See weather overviewHow to use our weather pages